Location: Newark
(22.3060°N, 114.2134°E)
Time: 23:10:00
(UTC+00:00)

Vanguard 2 - Pass Details

Date: 12 August 2021
Orbit: 553 x 2937 km, 32.9° (Epoch: 26 September)

Event Time Altitude Azimuth Distance (km) Brightness Sun altitude
Rises 12:46:58 0° 210° (SSW) 6,318 12.2 -24.3°
Reaches altitude 10° 12:52:43 10° 199° (SSW) 4,944 11.5 -25.5°
Enters shadow 12:59:50 22° 170° (S) 3,458 10.4 -26.9°
Maximum altitude 13:02:30 24° 151° (SSE) 3,121 - -27.4°
Drops below altitude 10° 13:09:27 10° 101° (ESE) 3,424 - -28.8°
Sets 13:12:31 0° 87° (E) 4,066 - -29.4°
